Meteo pe oră la Bolshie Turki

Astăzi, 9 Mai, Duminică

Timp Temperatura Precipitaţii Vânt Presiune Umiditate
00:00 +13°C° 0 mm 5 m/s 742 mmHg 66%
01:00 +13°C° 0.1 mm 4 m/s 742 mmHg 70%
02:00 +12°C° 0.1 mm 4 m/s 742 mmHg 74%
03:00 +12°C° 0.1 mm 3 m/s 741 mmHg 77%
04:00 +12°C° 0.5 mm 3 m/s 741 mmHg 80%
05:00 +13°C° 0.5 mm 3 m/s 741 mmHg 84%
06:00 +13°C° 0.5 mm 3 m/s 741 mmHg 87%
07:00 +14°C° 0.1 mm 3 m/s 741 mmHg 83%
08:00 +15°C° 0.1 mm 4 m/s 741 mmHg 79%
09:00 +15°C° 0.1 mm 5 m/s 741 mmHg 75%
10:00 +16°C° 0 mm 5 m/s 741 mmHg 68%
11:00 +17°C° 0 mm 6 m/s 741 mmHg 62%
12:00 +19°C° 0 mm 6 m/s 741 mmHg 55%
13:00 +15°C° 0 mm 6 m/s 742 mmHg 63%
14:00 +13°C° 0 mm 6 m/s 742 mmHg 71%
15:00 +9°C° 0 mm 6 m/s 743 mmHg 79%
16:00 +9°C° 0 mm 6 m/s 743 mmHg 79%
17:00 +8°C° 0 mm 6 m/s 744 mmHg 80%
18:00 +7°C° 0 mm 6 m/s 744 mmHg 81%
19:00 +7°C° 0.4 mm 6 m/s 744 mmHg 84%
20:00 +5°C° 0.4 mm 6 m/s 745 mmHg 87%
21:00 +4°C° 0.4 mm 6 m/s 745 mmHg 91%
22:00 +4°C° 1.1 mm 6 m/s 745 mmHg 92%
23:00 +5°C° 1.1 mm 5 m/s 745 mmHg 93%

Mâine, 10 Mai, Luni

Timp Temperatura Precipitaţii Vânt Presiune Umiditate
00:00 +5°C° 1.1 mm 5 m/s 745 mmHg 94%
01:00 +5°C° 0.5 mm 5 m/s 745 mmHg 94%
02:00 +5°C° 0.5 mm 5 m/s 745 mmHg 93%
03:00 +5°C° 0.5 mm 5 m/s 745 mmHg 93%
04:00 +5°C° 1.1 mm 6 m/s 745 mmHg 94%
05:00 +5°C° 1.1 mm 6 m/s 745 mmHg 95%
06:00 +5°C° 1.1 mm 6 m/s 745 mmHg 95%
07:00 +6°C° 0.5 mm 7 m/s 745 mmHg 94%
08:00 +8°C° 0.5 mm 7 m/s 745 mmHg 92%
09:00 +9°C° 0.5 mm 8 m/s 745 mmHg 91%
10:00 +10°C° 0.1 mm 7 m/s 745 mmHg 88%
11:00 +11°C° 0.1 mm 7 m/s 745 mmHg 86%
12:00 +12°C° 0.1 mm 7 m/s 745 mmHg 83%
13:00 +15°C° 0.2 mm 8 m/s 745 mmHg 79%
14:00 +16°C° 0.2 mm 8 m/s 745 mmHg 75%
15:00 +17°C° 0.2 mm 8 m/s 745 mmHg 71%
16:00 +17°C° 0.3 mm 9 m/s 744 mmHg 73%
17:00 +17°C° 0.3 mm 9 m/s 744 mmHg 75%
18:00 +16°C° 0.3 mm 9 m/s 744 mmHg 77%
19:00 +15°C° 0.3 mm 8 m/s 745 mmHg 81%
20:00 +14°C° 0.3 mm 6 m/s 746 mmHg 85%
21:00 +14°C° 0.3 mm 4 m/s 747 mmHg 89%
22:00 +14°C° 0.1 mm 4 m/s 747 mmHg 88%
23:00 +14°C° 0.1 mm 5 m/s 747 mmHg 87%

Poimâine, 11 Mai, Marţi

Timp Temperatura Precipitaţii Vânt Presiune Umiditate
00:00 +14°C° 0.1 mm 6 m/s 747 mmHg 86%
01:00 +13°C° 0.3 mm 6 m/s 747 mmHg 88%
02:00 +13°C° 0.3 mm 5 m/s 747 mmHg 90%
03:00 +12°C° 0.3 mm 5 m/s 747 mmHg 91%
04:00 +10°C° 0.9 mm 5 m/s 748 mmHg 92%
05:00 +9°C° 0.9 mm 5 m/s 749 mmHg 93%
06:00 +8°C° 0.9 mm 4 m/s 750 mmHg 94%
07:00 +10°C° 0.1 mm 4 m/s 750 mmHg 86%
08:00 +11°C° 0.1 mm 4 m/s 751 mmHg 77%
09:00 +12°C° 0.1 mm 3 m/s 751 mmHg 69%
10:00 +13°C° 0 mm 3 m/s 751 mmHg 62%
11:00 +14°C° 0 mm 3 m/s 751 mmHg 55%
12:00 +17°C° 0 mm 2 m/s 751 mmHg 49%
13:00 +17°C° 0 mm 2 m/s 752 mmHg 49%
14:00 +17°C° 0 mm 3 m/s 752 mmHg 49%
15:00 +17°C° 0 mm 3 m/s 752 mmHg 50%
16:00 +15°C° 0.9 mm 2 m/s 752 mmHg 63%
17:00 +13°C° 0.9 mm 2 m/s 752 mmHg 76%
18:00 +11°C° 0.9 mm 1 m/s 752 mmHg 90%
19:00 +11°C° 1.3 mm 1 m/s 752 mmHg 92%
20:00 +10°C° 1.3 mm 2 m/s 752 mmHg 94%
21:00 +10°C° 1.3 mm 2 m/s 752 mmHg 96%
22:00 +10°C° 0.7 mm 2 m/s 751 mmHg 97%
23:00 +12°C° 0.7 mm 1 m/s 751 mmHg 97%

12 Mai, Miercuri

Timp Temperatura Precipitaţii Vânt Presiune Umiditate
00:00 +12°C° 0.7 mm 1 m/s 751 mmHg 98%
01:00 +12°C° 4.1 mm 1 m/s 750 mmHg 97%
02:00 +12°C° 4.1 mm 2 m/s 750 mmHg 97%
03:00 +12°C° 4.1 mm 2 m/s 750 mmHg 97%
04:00 +12°C° 1.4 mm 2 m/s 750 mmHg 97%
05:00 +12°C° 1.4 mm 2 m/s 750 mmHg 97%
06:00 +12°C° 1.4 mm 2 m/s 751 mmHg 96%
07:00 +13°C° 0 mm 2 m/s 751 mmHg 92%
08:00 +14°C° 0 mm 2 m/s 751 mmHg 87%
09:00 +16°C° 0 mm 2 m/s 751 mmHg 82%
10:00 +17°C° 0 mm 3 m/s 751 mmHg 78%
11:00 +18°C° 0 mm 4 m/s 751 mmHg 73%
12:00 +19°C° 0 mm 5 m/s 751 mmHg 69%
13:00 +20°C° 0 mm 5 m/s 751 mmHg 65%
14:00 +20°C° 0 mm 6 m/s 751 mmHg 62%
15:00 +21°C° 0 mm 7 m/s 751 mmHg 58%
16:00 +20°C° 0.1 mm 6 m/s 751 mmHg 65%
17:00 +17°C° 0.1 mm 5 m/s 750 mmHg 72%
18:00 +17°C° 0.1 mm 4 m/s 750 mmHg 79%
19:00 +17°C° 0 mm 4 m/s 750 mmHg 76%
20:00 +16°C° 0 mm 5 m/s 750 mmHg 74%
21:00 +16°C° 0 mm 6 m/s 750 mmHg 72%
22:00 +16°C° 0 mm 6 m/s 749 mmHg 68%
23:00 +16°C° 0 mm 7 m/s 749 mmHg 65%

13 Mai, Joi

Timp Temperatura Precipitaţii Vânt Presiune Umiditate
00:00 +16°C° 0 mm 7 m/s 749 mmHg 62%
01:00 +15°C° 0 mm 7 m/s 749 mmHg 63%
02:00 +15°C° 0 mm 6 m/s 749 mmHg 65%
03:00 +14°C° 0 mm 5 m/s 749 mmHg 67%
04:00 +14°C° 0.2 mm 5 m/s 749 mmHg 72%
05:00 +14°C° 0.2 mm 6 m/s 749 mmHg 77%
06:00 +13°C° 0.2 mm 6 m/s 749 mmHg 82%
07:00 +14°C° 0 mm 6 m/s 749 mmHg 80%
08:00 +15°C° 0 mm 5 m/s 749 mmHg 78%
09:00 +16°C° 0 mm 5 m/s 749 mmHg 76%
10:00 +17°C° 0 mm 5 m/s 750 mmHg 71%
11:00 +20°C° 0 mm 6 m/s 750 mmHg 66%
12:00 +22°C° 0 mm 6 m/s 750 mmHg 60%
13:00 +22°C° 0 mm 5 m/s 750 mmHg 60%
14:00 +23°C° 0 mm 5 m/s 750 mmHg 59%
15:00 +23°C° 0 mm 5 m/s 750 mmHg 59%
16:00 +23°C° 0 mm 4 m/s 750 mmHg 62%
17:00 +22°C° 0 mm 3 m/s 749 mmHg 66%
18:00 +22°C° 0 mm 3 m/s 749 mmHg 69%
19:00 +21°C° 0 mm 3 m/s 749 mmHg 69%
20:00 +20°C° 0 mm 3 m/s 749 mmHg 70%
21:00 +20°C° 0 mm 4 m/s 749 mmHg 70%
22:00 +19°C° 0 mm 4 m/s 749 mmHg 68%
23:00 +18°C° 0 mm 4 m/s 749 mmHg 67%

14 Mai, Vineri

Timp Temperatura Precipitaţii Vânt Presiune Umiditate
00:00 +18°C° 0 mm 4 m/s 749 mmHg 65%
01:00 +17°C° 0 mm 4 m/s 749 mmHg 68%
02:00 +15°C° 0 mm 4 m/s 749 mmHg 71%
03:00 +14°C° 0 mm 3 m/s 750 mmHg 74%
04:00 +16°C° 0 mm 3 m/s 750 mmHg 73%
05:00 +16°C° 0 mm 3 m/s 750 mmHg 73%
06:00 +16°C° 0 mm 3 m/s 750 mmHg 72%
07:00 +18°C° 0 mm 4 m/s 750 mmHg 67%
08:00 +20°C° 0 mm 5 m/s 750 mmHg 61%
09:00 +22°C° 0 mm 6 m/s 750 mmHg 56%
10:00 +23°C° 0 mm 6 m/s 750 mmHg 51%
11:00 +24°C° 0 mm 7 m/s 750 mmHg 45%
12:00 +27°C° 0 mm 8 m/s 750 mmHg 40%
13:00 +27°C° 0 mm 7 m/s 750 mmHg 42%
14:00 +27°C° 0 mm 7 m/s 750 mmHg 43%
15:00 +28°C° 0 mm 7 m/s 750 mmHg 45%
16:00 +27°C° 0 mm 6 m/s 749 mmHg 49%
17:00 +26°C° 0 mm 5 m/s 749 mmHg 53%
18:00 +25°C° 0 mm 5 m/s 749 mmHg 56%
19:00 +22°C° 0 mm 5 m/s 749 mmHg 58%
20:00 +21°C° 0 mm 4 m/s 749 mmHg 60%
21:00 +19°C° 0 mm 4 m/s 749 mmHg 61%
22:00 +19°C° 0 mm 4 m/s 749 mmHg 61%
23:00 +19°C° 0 mm 4 m/s 749 mmHg 61%
Arată mai mult

Formular de consimțământ

Meteoprog și furnizorii noștri de servicii pot stoca și accesa date personale, precum cookies, identificatori de dispozitiv sau alte tehnologii similare pe dispozitivul dumneavoastră și procesa astfel de date pentru a personaliza conținutul și reclamele, dar și pentru a oferi caracteristici de social media și pentru a analiza traficul.

  • Stocarea și/sau accesarea informațiilor pe dispozitivul dumneavoastră

    Cookies, identificatori de dispozitiv sau alte informații pot fi stocate sau accesate pe dispozitiv în scopurile indicate mai sus.

  • Reclame și conținut personalizat, evaluarea reclamelor și a conținutului, informații despre audiențe și dezvoltarea produselor

    Reclamele și conținutul pot fi personalizate pe baza unui profil. Pot fi adăugate date suplimentare pentru a personaliza mai bine reclamele și conținutul. Performanța reclamelor și conținutului poate fi măsurată. Pot fi obținute informații despre utilizatorii care au văzut reclamele și conținutul. Aceste date pot fi utilizate pentru a dezvolta sau îmbunătăți experiența utilizatorilor, sistemele și software-ul.

Dând clic pe ‘Sunt de acord’, permiteți utilizarea cookie-urilor menționate, a identificatorilor de dispozitiv, balizelor web sau altor tehnologii similare. Setările pot fi modificate din browser-ul dispozitivului dumneavoastră.

În anumite scopuri, interesele legitime pot prima asupra consimțământului. Puteți citi mai multe informații în acest sens în Politica privind Confidențialitatea Datelor și Cookie.